Home   Weather   Santa Clara   Past weeks
Flag for USA

Past Weather in Santa Clara, California, USA — Yesterday and Last 2 Weeks

Now
75 °F

Passing clouds.


Feels Like: 78 °F
Forecast: 84 / 54 °F
Wind: No wind

Location: San Jose International Airport

Current Time: Oct 22, 2019 at 12:08:45 pm

Latest Report: Oct 22, 2019 at 10:53 am


Visibility: 10 mi

Pressure: 30.18 "Hg

Humidity: 42%

Dew Point: 50 °F

Location of Santa ClaraLocation

Past Weather in Santa Clara — Graph

°F

Santa Clara Temperature Yesterday

Maximum temperature yesterday: 83 °F (at 3:53 pm)
Minimum temperature yesterday: 53 °F (at 3:53 am)
Average temperature yesterday: 66 °F

High & Low Weather Summary for the Past Weeks

 TemperatureHumidityPressure
High87 °F (Oct 7, 3:53 pm)100% (Oct 17, 5:34 am)30.19 "Hg (Oct 17, 5:34 am)
Low47 °F (Oct 14, 4:53 am)15% (Oct 10, 10:53 am)29.81 "Hg (Oct 8, 5:53 pm)
Average62 °F61%29.99 "Hg
* Reported Oct 7 9:53 am — Oct 22 9:53 am, Santa Clara. Weather by CustomWeather, © 2019

Note: Actual official high and low records may vary slightly from our data, if they occured in-between our weather recording intervals... More about our weather records

Advertising

Santa Clara Weather History for the Previous 24 Hours

Scroll right to see more
 ConditionsComfort  
Time TempWeatherWind HumidityBarometerVisibility
9:53 am
Tue, Oct 22
70 °FPassing clouds.3 mph49%30.19 "Hg10 mi
8:53 am63 °FPassing clouds.No wind60%30.19 "Hg10 mi
7:53 am56 °FPassing clouds.3 mph75%30.18 "Hg10 mi
6:53 am58 °FClear.No wind70%30.17 "Hg10 mi
5:53 am54 °FClear.No wind80%30.17 "Hg10 mi
4:53 am55 °FClear.3 mph80%30.16 "Hg10 mi
3:53 am56 °FClear.3 mph81%30.16 "Hg10 mi
2:53 am56 °FClear.5 mph77%30.17 "Hg10 mi
1:53 am59 °FClear.No wind69%30.16 "Hg10 mi
12:53 am61 °FClear.No wind67%30.16 "Hg10 mi
11:53 pm
Mon, Oct 21
62 °FClear.No wind67%30.16 "Hg10 mi
10:53 pm64 °FClear.5 mph68%30.16 "Hg10 mi
9:53 pm68 °FClear.No wind59%30.14 "Hg10 mi
8:53 pm70 °FClear.3 mph59%30.13 "Hg10 mi
7:53 pm68 °FClear.7 mph57%30.11 "Hg10 mi
6:53 pm72 °FClear.7 mph49%30.09 "Hg10 mi
5:53 pm80 °FSunny.8 mph35%30.09 "Hg10 mi
4:53 pm82 °FSunny.9 mph33%30.09 "Hg10 mi
3:53 pm83 °FSunny.13 mph32%30.09 "Hg10 mi
2:53 pm81 °FSunny.12 mph34%30.09 "Hg10 mi
1:53 pm79 °FSunny.13 mph36%30.11 "Hg10 mi
12:53 pm78 °FSunny.12 mph40%30.14 "Hg10 mi
Weather by CustomWeather, © 2019

See weather overview